Regional Weather Roundup
Issued by NWS

Home | Current Version | Previous Version | Graphics & Text | Print | Product List | Glossary On
Versions: 1 2 3 4 5 6 7 8 9 10 11 12 13 14 15 16 17 18 19 20 21 22 23 24 25 26 27 28 29 30 31 32 33 34 35 36 37 38 39 40 41 42 43 44 45 46 47 48 49 50
000
ASUS43 KOAX 291902
RWRNE
WEATHER ROUNDUP FOR NEBRASKA
NATIONAL WEATHER SERVICE OMAHA NE
200 PM CDT FRI MAY 29 2015

NOTES: SATELLITE DATA IS BEING USED TO AUGMENT CLOUD COVER ABOVE
       12000 FEET.
       "FAIR" INDICATES FEW OR NO CLOUDS BELOW 12,000 FEET WITH NO
       SIGNIFICANT WEATHER AND/OR OBSTRUCTIONS TO VISIBILITY.

  * THESE STATIONS DO NOT REPORT WEATHER SUCH AS RAIN...SNOW OR FOG.

NEZ001>004-019>022-054>056-292000-
NEBRASKA PANHANDLE

CITY           SKY/WX    TMP DP  RH WIND       PRES   REMARKS
SCOTTSBLUFF    RAIN      52  32  46 N13       30.23R
ALLIANCE       CLOUDY    49  47  93 N16       30.20R FOG
CHADRON        LGT RAIN  49  46  90 NE13G22   30.24R FOG
SIDNEY         PTSUNNY   58  51  78 N25G32    30.17R
$$

NEZ057>060-069>072-079>082-292000-
SOUTHWEST NEBRASKA

CITY           SKY/WX    TMP DP  RH WIND       PRES   REMARKS
NORTH PLATTE   PTSUNNY   69  54  58 N14       30.05F
IMPERIAL       PTSUNNY   67  55  65 N12       30.08S
MCCOOK         PTSUNNY   75  55  49 NW13      30.03S
$$

NEZ005>010-023>029-035>040-094-292000-
NORTH CENTRAL NEBRASKA

CITY           SKY/WX    TMP DP  RH WIND       PRES   REMARKS
VALENTINE      CLOUDY    54  49  83 N16G28    30.14R
BROKEN BOW     MOSUNNY   70  56  61 N29G35    30.03R
ORD            CLOUDY    66  57  72 N24G31    30.00R
$$

NEZ041-046>049-061>064-073>077-083>087-292000-
SOUTH CENTRAL NEBRASKA

CITY           SKY/WX    TMP DP  RH WIND       PRES   REMARKS
GRAND ISLAND   PTSUNNY   77  57  50 NW15      29.98R
HASTINGS       PTSUNNY   76  57  51 NW12G21   29.98S
KEARNEY *      CLOUDY    75  55  50 NW12G20   30.00R
$$

NEZ011>018-030>034-042>045-292000-
NORTHEAST NEBRASKA

CITY           SKY/WX    TMP DP  RH WIND       PRES   REMARKS
NORFOLK        PTSUNNY   74  61  63 W9        29.93R
COLUMBUS *     CLOUDY    75  57  53 W6        29.95R
TEKAMAH        CLOUDY    77  63  61 SW14      29.90S
$$

NEZ050>053-065>068-078-088>093-292000-
SOUTHEAST NEBRASKA

CITY           SKY/WX    TMP DP  RH WIND       PRES   REMARKS
LINCOLN        CLOUDY    76  61  59 SW8       29.94S
OMAHA EPPLEY   CLOUDY    76  59  55 SW8       29.91F
FALLS CITY     CLOUDY    70  65  84 SW10G21   29.96F
$$

NEZ044-045-051>053-067-292000-
OMAHA AREA

CITY           SKY/WX    TMP DP  RH WIND       PRES   REMARKS
OMAHA EPPLEY   CLOUDY    76  59  55 SW8       29.91F
OFFUTT AFB     CLOUDY    76  60  58 SW10      29.91F
$$



USA.gov is the U.S. government's official web portal to all federal, state and local government web resources and services.